Location: ??????
(36.0418°N, 43.6351°E)
Time: 03:04:38
(UTC+00:00)

Cosmos 2219 Rocket - Pass Details

Date: 07 March 2021
Orbit: 826 x 848 km, 71.0° (Epoch: 22 April)

Event Time Altitude Azimuth Distance (km) Brightness Sun altitude
Rises 01:46:19 0° 343° (NNW) 3,402 5.3 -21.3°
Reaches altitude 10° 01:48:50 10° 349° (NNW) 2,467 4.6 -20.8°
Maximum altitude 01:54:21 52° 65° (ENE) 1,045 3.0 -19.7°
Drops below altitude 10° 01:59:51 10° 141° (SE) 2,463 5.0 -18.6°
Sets 02:02:22 0° 146° (SSE) 3,395 5.7 -18.0°
